Flag for Poland Weather past 2 weeks in Gdańsk, Poland

Now
46 °F

Broken clouds.


Feels Like: 40 °F
Forecast: 39 / 54 °F
Wind: 16 mph from Northwest

Location: Gdansk-Rebiechowo

Current Time: Apr 28, 2015 at 6:01:55 PM

Latest Report: Apr 28, 2015 at 5:30 PM


Visibility: N/A

Pressure: 29.77 "Hg

Humidity: 87%

Dew point: 43 °F

Location of GdańskLocation

Historic Weather in Gdańsk — Graph

°F

Gdańsk temperature yesterday

Maximum temperature yesterday: 72 °F (at 2:30 PM)
Minimum temperature yesterday: 46 °F (at 6:00 AM)
Average temperature yesterday: 57 °F

Past Weeks' High & Low Weather Summary

 TemperatureHumidityPressure
High72 °F (Apr 25, 2:00 PM)100% (Apr 15, 2:30 PM)30.21 "Hg (Apr 15, 2:30 PM)
Low32 °F (Apr 22, 4:00 AM)23% (Apr 25, 4:30 PM)29.56 "Hg (Apr 27, 3:30 PM)
Average47 °F72%29.91 "Hg
* Reported Apr 13 5:00 PM — Apr 28 5:00 PM, Gdańsk, Weather by CustomWeather, © 2015

Note: Actual official high and low records may vary slightly from our data, if they occured in-between our weather recording intervals... More about our weather records

Advertising

Gdańsk weather history for previous 24 hours

 ConditionsComfort  
Time TempWeatherWind HumidityBarometerVisibility
5:00 PM
Tue, Apr 28
46 °FBroken clouds.15 mph93%29.77 "HgN/A
4:30 PM46 °FLight rain. Partly sunny.15 mph93%29.77 "HgN/A
4:00 PM46 °FLight rain. Partly sunny.14 mph93%29.77 "HgN/A
3:30 PM46 °FLight rain. Partly sunny.13 mph93%29.77 "HgN/A
3:00 PM46 °FLight rain. Broken clouds.13 mph93%29.77 "HgN/A
2:30 PM46 °FLight rain. Broken clouds.10 mph93%29.77 "HgN/A
2:00 PM46 °FLight rain. Partly sunny.10 mph87%29.77 "HgN/A
1:30 PM46 °FLight rain. Broken clouds.10 mph93%29.74 "Hg5 mi
1:00 PM45 °FLight rain. Partly sunny.9 mph100%29.74 "HgN/A
12:30 PM45 °FLight rain. Broken clouds.9 mph93%29.74 "HgN/A
12:00 PM45 °FLight rain. Broken clouds.12 mph93%29.74 "HgN/A
11:30 AM45 °FLight rain. Broken clouds.10 mph93%29.74 "HgN/A
11:00 AM45 °FLight rain. Broken clouds.10 mph87%29.71 "HgN/A
10:30 AM45 °FLight rain. Partly sunny.10 mph87%29.71 "HgN/A
10:00 AM45 °FLight rain. Overcast.10 mph87%29.71 "HgN/A
9:30 AM45 °FLight rain. Partly sunny.9 mph81%29.71 "HgN/A
9:00 AM45 °FPartly sunny.12 mph81%29.68 "HgN/A
8:30 AM45 °FPartly sunny.9 mph93%29.68 "HgN/A
8:00 AM45 °FPartly sunny.10 mph87%29.68 "HgN/A
7:30 AM45 °FPartly sunny.7 mph87%29.68 "HgN/A
7:00 AM45 °FPartly sunny.8 mph87%29.68 "HgN/A
6:30 AM45 °FPartly sunny.6 mph87%29.65 "HgN/A
5:30 AM45 °FPassing clouds.9 mph87%29.65 "HgN/A
5:00 AM45 °FPassing clouds.10 mph87%29.65 "HgN/A
4:30 AM46 °FLight rain. Partly cloudy.10 mph93%29.65 "HgN/A
4:00 AM46 °FLight rain. Fog.10 mph100%29.65 "Hg3 mi
3:30 AM46 °FLight rain. Fog.13 mph100%29.62 "Hg3 mi
3:00 AM46 °FLight rain. Fog.9 mph100%29.62 "Hg2 mi
2:30 AM46 °FLight rain. Fog.9 mph100%29.65 "Hg2 mi
2:00 AM46 °FFog.12 mph100%29.65 "Hg1 mi
1:30 AM46 °FFog.12 mph100%29.65 "Hg2 mi
1:00 AM48 °FPassing clouds.8 mph94%29.65 "Hg5 mi
12:30 AM48 °FPassing clouds.12 mph100%29.65 "Hg5 mi
12:00 AM52 °FSprinkles. Passing clouds.10 mph94%29.62 "Hg4 mi
11:30 PM
Mon, Apr 27
52 °FSprinkles. Passing clouds.6 mph94%29.65 "Hg4 mi
11:00 PM52 °FPassing clouds.9 mph94%29.62 "Hg4 mi
10:30 PM52 °FPassing clouds.7 mph94%29.62 "Hg4 mi
10:00 PM52 °FPassing clouds.6 mph100%29.62 "Hg4 mi
9:30 PM52 °FFog.3 mph100%29.65 "Hg3 mi
9:00 PM52 °FFog.5 mph100%29.62 "Hg3 mi
8:30 PM52 °FSprinkles. Fog.8 mph100%29.62 "Hg3 mi
8:00 PM54 °FPartly sunny.7 mph94%29.59 "Hg4 mi
7:30 PM54 °FScattered clouds.7 mph94%29.59 "Hg4 mi
7:00 PM54 °FRain showers. Passing clouds.6 mph94%29.59 "Hg4 mi
6:30 PM54 °FSprinkles. Scattered clouds.13 mph94%29.59 "Hg5 mi
6:00 PM55 °FScattered clouds.23 mph82%29.62 "HgN/A
Weather by CustomWeather, © 2015

See weather overviewHow to use our weather pages